Indianapolis Mount Comfort, IN

6:37 AM EDT on May 26, 2017 (GMT -0400)
Mount Comfort

Weather History for KMQJ - January, 2014

Change the Weather History Date:

Wednesday, January 8, 2014

  Actual Average (KEYE) Record (KEYE)
Temperature  
Mean Temperature 16 °F -  
Max Temperature 26 °F 34 °F 62 °F (2008)
Min Temperature 6 °F 20 °F -7 °F (2015)
Degree Days  
Heating Degree Days 49    
Moisture  
Dew Point 11 °F    
Average Humidity 80    
Maximum Humidity 93    
Minimum Humidity 73    
Precipitation  
Precipitation 0.00 in - - ()
Sea Level Pressure  
Sea Level Pressure 30.37 in    
Wind  
Wind Speed 7 mph (SSW)    
Max Wind Speed 9 mph    
Max Gust Speed -    
Visibility 10 miles    
Events      
Averages and records for this station are not official NWS values.
T = Trace of Precipitation, MM = Missing Value Source: NWS Daily Summary

Daily Weather History Graph

Daily Weather History Graph

Search for Another Location

Airport or City:

Trip Planner

Search our weather history database for the weather conditions in past years. The results will help you decide how hot, cold, wet, or windy it might be!

Date:

Astronomy

Jan. 08, 2014 Rise Set
Actual Time 8:04 AM EST 5:36 PM EST
Civil Twilight 7:34 AM EST 6:06 PM EST
Nautical Twilight 7:01 AM EST 6:39 PM EST
Astronomical Twilight 6:28 AM EST 7:12 PM EST
Moon 12:27 PM EST (1/8) 1:10 AM EST (1/8)
Length of Visible Light 10h 31m
Length of Day
9h 31m
First Quarter, 56% of the Moon is Illuminated
Jan 8
First Quarter
Jan 15
Full
Jan 24
Last Quarter
Jan 30
New
Feb 6
First Quarter

Hourly Weather History & Observations

Time (EST) Temp. Windchill Dew Point Humidity Pressure Visibility Wind Dir Wind Speed Gust Speed Precip Events Conditions
12:15 AM 6.8 °F -5.9 °F 1.4 °F 79% 30.32 in 10.0 mi SSE 8.1 mph - N/A   Clear
12:34 AM 8.6 °F -2.6 °F 1.4 °F 73% 30.32 in 10.0 mi SSE 6.9 mph - N/A   Clear
12:55 AM 6.8 °F -4.8 °F 1.4 °F 79% 30.32 in 10.0 mi SSE 6.9 mph - N/A   Clear
1:14 AM 8.6 °F -3.7 °F 1.4 °F 73% 30.31 in 10.0 mi South 8.1 mph - N/A   Clear
1:34 AM 8.6 °F -2.6 °F 1.4 °F 73% 30.31 in 10.0 mi South 6.9 mph - N/A   Clear
1:55 AM 8.6 °F -2.6 °F 1.4 °F 73% 30.31 in 10.0 mi SSW 6.9 mph - N/A   Clear
2:14 AM 8.6 °F -3.7 °F 1.4 °F 73% 30.31 in 10.0 mi South 8.1 mph - N/A   Clear
2:34 AM 8.6 °F -4.7 °F 3.2 °F 79% 30.32 in 10.0 mi SSE 9.2 mph - N/A   Clear
2:55 AM 8.6 °F -3.7 °F 3.2 °F 79% 30.32 in 10.0 mi South 8.1 mph - N/A   Clear
3:14 AM 8.6 °F -3.7 °F 3.2 °F 79% 30.32 in 10.0 mi South 8.1 mph - N/A   Clear
3:34 AM 8.6 °F -2.6 °F 3.2 °F 79% 30.33 in 10.0 mi South 6.9 mph - N/A   Clear
3:55 AM 8.6 °F -2.6 °F 3.2 °F 79% 30.33 in 10.0 mi South 6.9 mph - N/A   Clear
4:14 AM 8.6 °F -3.7 °F 3.2 °F 79% 30.32 in 10.0 mi South 8.1 mph - N/A   Clear
4:34 AM 6.8 °F -5.9 °F 1.4 °F 79% 30.32 in 10.0 mi South 8.1 mph - N/A   Clear
4:55 AM 8.6 °F -3.7 °F 3.2 °F 79% 30.32 in 10.0 mi South 8.1 mph - N/A   Clear
5:14 AM 8.6 °F -3.7 °F 3.2 °F 79% 30.32 in 10.0 mi South 8.1 mph - N/A   Clear
5:34 AM 8.6 °F -3.7 °F 3.2 °F 79% 30.31 in 10.0 mi South 8.1 mph - N/A   Clear
5:55 AM 8.6 °F -2.6 °F 3.2 °F 79% 30.31 in 10.0 mi South 6.9 mph - N/A   Clear
6:14 AM 8.6 °F -2.6 °F 3.2 °F 79% 30.31 in 10.0 mi South 6.9 mph - N/A   Clear
6:34 AM 8.6 °F -2.6 °F 3.2 °F 79% 30.31 in 10.0 mi South 6.9 mph - N/A   Clear
6:55 AM 10.4 °F -0.4 °F 5.0 °F 79% 30.32 in 10.0 mi South 6.9 mph - N/A   Clear
7:14 AM 10.4 °F -0.4 °F 5.0 °F 79% 30.32 in 10.0 mi South 6.9 mph - N/A   Clear
7:34 AM 12.2 °F 0.7 °F 6.8 °F 79% 30.32 in 10.0 mi South 8.1 mph - N/A   Clear
7:55 AM 12.2 °F -0.2 °F 6.8 °F 79% 30.33 in 10.0 mi South 9.2 mph - N/A   Scattered Clouds
8:14 AM 12.2 °F -0.2 °F 6.8 °F 79% 30.33 in 10.0 mi South 9.2 mph - N/A   Clear
8:34 AM 12.2 °F 0.7 °F 6.8 °F 79% 30.34 in 10.0 mi South 8.1 mph - N/A   Clear
8:55 AM 14.0 °F 2.0 °F 8.6 °F 79% 30.34 in 10.0 mi South 9.2 mph - N/A   Scattered Clouds
9:14 AM 14.0 °F 2.9 °F 8.6 °F 79% 30.36 in 10.0 mi South 8.1 mph - N/A   Scattered Clouds
9:34 AM 15.8 °F 5.1 °F 10.4 °F 79% 30.36 in 10.0 mi South 8.1 mph - N/A   Clear
9:55 AM 15.8 °F 4.2 °F 10.4 °F 79% 30.37 in 10.0 mi South 9.2 mph - N/A   Clear
10:14 AM 17.6 °F 6.4 °F 10.4 °F 73% 30.38 in 10.0 mi SSW 9.2 mph - N/A   Clear
10:35 AM 17.6 °F 7.3 °F 12.2 °F 79% 30.39 in 10.0 mi SSW 8.1 mph - N/A   Clear
10:54 AM 19.4 °F 8.6 °F 12.2 °F 74% 30.39 in 10.0 mi SSW 9.2 mph - N/A   Clear
11:14 AM 19.4 °F 9.5 °F 12.2 °F 74% 30.39 in 10.0 mi SW 8.1 mph - N/A   Clear
11:35 AM 19.4 °F 11.5 °F 14.0 °F 80% 30.38 in 10.0 mi SW 5.8 mph - N/A   Clear
11:54 AM 21.2 °F 13.6 °F 14.0 °F 74% 30.37 in 10.0 mi SSW 5.8 mph - N/A   Clear
12:14 PM 21.2 °F 11.7 °F 14.0 °F 74% 30.37 in 10.0 mi SW 8.1 mph - N/A   Clear
12:35 PM 23.0 °F 13.1 °F 15.8 °F 74% 30.37 in 7.0 mi SW 9.2 mph - N/A   Scattered Clouds
12:54 PM 23.0 °F 15.8 °F 15.8 °F 74% 30.36 in 10.0 mi SSW 5.8 mph - N/A   Scattered Clouds
1:14 PM 23.0 °F 15.8 °F 15.8 °F 74% 30.35 in 10.0 mi SSW 5.8 mph - N/A   Scattered Clouds
1:35 PM 24.8 °F 17.9 °F 17.6 °F 74% 30.34 in 10.0 mi SSW 5.8 mph - N/A   Scattered Clouds
1:54 PM 24.8 °F 16.1 °F 17.6 °F 74% 30.34 in 10.0 mi SW 8.1 mph - N/A   Scattered Clouds
2:14 PM 24.8 °F 15.3 °F 17.6 °F 74% 30.34 in 10.0 mi SW 9.2 mph - N/A   Scattered Clouds
2:35 PM 24.8 °F 16.9 °F 17.6 °F 74% 30.36 in 10.0 mi WSW 6.9 mph - N/A   Scattered Clouds
2:54 PM 24.8 °F 17.9 °F 19.4 °F 80% 30.36 in 10.0 mi SW 5.8 mph - N/A   Scattered Clouds
3:14 PM 24.8 °F 17.9 °F 19.4 °F 80% 30.36 in 10.0 mi WSW 5.8 mph - N/A   Scattered Clouds
3:35 PM 26.6 °F 19.1 °F 19.4 °F 74% 30.37 in 10.0 mi WSW 6.9 mph - N/A   Mostly Cloudy
3:54 PM 24.8 °F 16.9 °F 19.4 °F 80% 30.38 in 10.0 mi SW 6.9 mph - N/A   Scattered Clouds
4:14 PM 24.8 °F 19.1 °F 19.4 °F 80% 30.38 in 10.0 mi WSW 4.6 mph - N/A   Scattered Clouds
4:35 PM 24.8 °F 19.1 °F 19.4 °F 80% 30.39 in 10.0 mi WSW 4.6 mph - N/A   Scattered Clouds
4:54 PM 24.8 °F 20.5 °F 19.4 °F 80% 30.39 in 10.0 mi SW 3.5 mph - N/A   Mostly Cloudy
5:14 PM 24.8 °F - 19.4 °F 80% 30.39 in 10.0 mi Calm Calm - N/A   Overcast
5:35 PM 24.8 °F 19.1 °F 19.4 °F 80% 30.40 in 10.0 mi West 4.6 mph - N/A   Overcast
5:54 PM 24.8 °F 20.5 °F 21.2 °F 86% 30.40 in 10.0 mi West 3.5 mph - N/A   Overcast
6:15 PM 24.8 °F - 21.2 °F 86% 30.41 in 10.0 mi Calm Calm - N/A   Overcast
6:34 PM 23.0 °F 15.8 °F 19.4 °F 86% 30.41 in 10.0 mi North 5.8 mph - N/A   Overcast
6:54 PM 23.0 °F 15.8 °F 19.4 °F 86% 30.41 in 10.0 mi NNE 5.8 mph - N/A   Scattered Clouds
7:15 PM 23.0 °F 17.0 °F 19.4 °F 86% 30.41 in 10.0 mi North 4.6 mph - N/A   Clear
7:34 PM 21.2 °F 14.9 °F 17.6 °F 86% 30.42 in 10.0 mi North 4.6 mph - N/A   Clear
7:54 PM 21.2 °F 12.6 °F 17.6 °F 86% 30.43 in 10.0 mi North 6.9 mph - N/A   Scattered Clouds
8:15 PM 19.4 °F 11.5 °F 17.6 °F 93% 30.43 in 10.0 mi North 5.8 mph - N/A   Clear
8:34 PM 19.4 °F 11.5 °F 15.8 °F 86% 30.44 in 10.0 mi North 5.8 mph - N/A   Clear
8:54 PM 19.4 °F 12.8 °F 15.8 °F 86% 30.44 in 10.0 mi NNE 4.6 mph - N/A   Clear
9:15 PM 17.6 °F 9.3 °F 14.0 °F 86% 30.45 in 10.0 mi North 5.8 mph - N/A   Clear
9:34 PM 15.8 °F 8.6 °F 12.2 °F 86% 30.46 in 10.0 mi NNE 4.6 mph - N/A   Clear
9:54 PM 14.0 °F 3.9 °F 12.2 °F 93% 30.46 in 10.0 mi NNE 6.9 mph - N/A   Scattered Clouds
10:15 PM 15.8 °F 8.6 °F 12.2 °F 86% 30.46 in 10.0 mi NNE 4.6 mph - N/A   Mostly Cloudy
10:34 PM 15.8 °F 10.2 °F 14.0 °F 93% 30.47 in 10.0 mi NNE 3.5 mph - N/A   Overcast
10:55 PM 15.8 °F - 14.0 °F 93% 30.47 in 10.0 mi Calm Calm - N/A   Mostly Cloudy
11:14 PM 15.8 °F 10.2 °F 14.0 °F 93% 30.47 in 10.0 mi NNE 3.5 mph - N/A   Mostly Cloudy
11:34 PM 15.8 °F 8.6 °F 14.0 °F 93% 30.47 in 10.0 mi NNE 4.6 mph - N/A   Mostly Cloudy
11:55 PM 15.8 °F 8.6 °F 14.0 °F 93% 30.46 in 10.0 mi NNE 4.6 mph - N/A   Overcast